Aeroporto :
LOGIN :

Iscrizione | Disclaimer

   EN    FR    IT 

 










Sommario :    VFR   VFR Marginale   IFR   IFR Intensivo   IFR Molto Intensivo
Visibilità : 
Base nubi : 
>= 8 km
>= 3000ft
5 / 8 km
1000 / 3000 ft
1500m / 5 km
500 / 1000 ft
800 / 1500m
200 / 500 ft
< 800m
< 200 ft
Simboli :   Temporali  Nebbia  Neve Forte  Precipitazioni Forti  Vento > 20 kt
SIGMETs :   Varie  Temporali  Ghiacco  Turbolenza  Onda orograficha  Ceneri Vulcaniche







- Altitudine del aeroporto : 1411 ft
- Codice IATA : GVA


LSGG - Genève Cointrin

ULTIMO METAR :
  • 210950Z 14003KT 050V200 CAVOK 16/03 Q1019 NOSIG

METARs OBSOLETI :
  • 210920Z VRB02KT CAVOK 16/03 Q1019 NOSIG
  • 210850Z VRB02KT CAVOK 15/04 Q1019 NOSIG
  • 210820Z VRB02KT CAVOK 14/05 Q1019 NOSIG
  • 210750Z VRB01KT CAVOK 13/04 Q1019 NOSIG
  • 210720Z VRB01KT CAVOK 12/03 Q1019 NOSIG

TAF TAF LSGG
Valido dal 21 a 09 ore il 22 a 15 ore UTC


210825Z 2109/2215 VRB03KT CAVOK TX22/2115Z TN08/2206Z TX22/2215Z
ATIS : +41 22 417 40 81
Nessun NOTAM noto per questo aeroporto.



MetMap, La meteo Aeronautica in un colpo d'occhio ! - Copyright ORBIFLY Dicembre 2007 - Disclaimer

ORBIFLY MET'MAP TEAM :

Programmazione e sviluppo : Alexandra Zaïnal
Concezione e sviluppo : Baudouin d'Aumeries
Co-Programmazione e sviluppo : Marc-Olivier Méhu
Supporto tecnico e logistico : Manuel Goepfert
Aiuto per la traduzione : Arnaldo La Scala

Contatto : metmap@orbifly.com




FONTI E CREDITI :

   NOAA